Location: Newark
(29.9790°N, 31.1340°E)
Time: 01:13:35
(UTC+00:00)

Transit 2A Rocket - Pass Details

Date: 26 January 2020
Orbit: 591 x 912 km, 66.7° (Epoch: 27 February)

Event Time Altitude Azimuth Distance (km) Brightness Sun altitude
Rises 12:10:33 0° 337° (NNW) 3,092 7.9 33.0°
Reaches altitude 10° 12:12:48 10° 339° (NNW) 2,219 7.2 32.7°
Maximum altitude 12:17:53 76° 65° (ENE) 800 5.5 32.1°
Drops below altitude 10° 12:23:28 10° 151° (SSE) 2,423 8.0 31.3°
Sets 12:26:01 0° 153° (SSE) 3,399 8.6 31.0°
